Theta_e
325 324 324 323 320 317 318 318 317 314 315 316 316 317 317 318 318 319 320 320 320 320 319 318 318 317 317 317 317 317 317 317 317 317 317 317 316 316 316 316 316 317 317 318 319 319 320 321 322 323 324 325 325 325 324 324 324 323 323 323 322 322 322 321 319 319 318 317 316 317 317 316 316 316 316 315 315 315 315 315 315 314 314 314 314
326 326 325 324 323 322 322 323 322 320 320 320 320 320 320 321 321 321 321 320 320 320 320 320 320 320 320 320 321 321 320 319 319 318 318 318 317 317 317 316 316 316 315 316 317 317 317 318 319 321 323 324 324 324 325 325 325 324 324 324 324 323 323 322 321 320 319 318 317 318 317 317 317 316 316 316 316 315 315 316 315 315 315 315 314
326 326 326 324 323 324 324 324 324 324 323 323 323 323 323 323 323 322 322 321 322 322 322 322 323 324 323 323 323 324 324 323 322 322 322 321 320 320 320 319 319 318 317 317 316 316 317 317 317 318 320 321 322 323 323 324 324 323 324 324 324 324 324 324 323 322 322 320 320 320 320 318 318 317 317 317 317 316 316 316 316 315 315 315 315
326 327 326 325 324 324 325 326 326 325 325 324 324 324 324 324 324 324 324 323 323 323 324 324 324 324 324 323 322 323 325 324 324 324 324 323 323 323 322 322 322 321 320 319 318 317 317 317 317 318 318 319 320 322 322 322 323 323 323 323 323 324 324 324 324 324 323 323 322 322 322 320 319 318 318 318 317 317 317 317 316 316 316 316 315
328 328 327 326 325 325 326 326 326 326 325 325 324 324 325 325 325 325 325 324 324 324 324 324 323 322 322 322 323 324 324 324 324 324 324 323 323 323 323 322 322 322 322 321 320 319 319 318 318 318 319 319 319 320 321 321 321 322 322 322 323 323 324 325 324 324 324 324 324 324 323 322 321 320 319 319 318 318 318 317 317 316 316 316 316
328 328 328 327 327 326 326 326 326 326 326 326 325 325 325 325 325 325 325 324 324 324 324 323 322 322 322 322 324 325 324 323 323 323 322 322 322 322 321 322 322 323 322 321 321 320 320 319 319 319 318 319 318 318 319 319 319 320 320 321 321 321 322 323 323 324 325 324 324 324 324 324 323 322 321 320 320 319 319 318 318 317 317 316 316
329 329 328 328 328 327 326 326 326 326 326 326 326 325 325 325 324 324 324 324 323 323 323 323 323 324 323 323 325 325 324 323 323 322 321 321 321 321 322 322 322 322 321 321 321 320 320 319 319 319 319 318 318 318 318 318 318 318 319 319 320 320 321 322 322 324 324 324 324 323 323 323 323 323 323 322 322 321 321 320 320 319 318 318 317
329 329 328 328 328 327 326 326 326 326 326 326 326 325 325 324 324 325 323 323 323 323 323 324 324 325 325 325 325 325 325 324 323 321 320 320 320 321 321 322 321 321 320 320 320 320 320 319 319 319 319 318 318 317 317 317 318 318 318 318 318 319 320 320 320 321 321 321 322 321 321 321 321 322 322 323 323 323 323 322 322 321 320 319 319
329 329 329 328 328 327 327 326 326 326 326 326 326 326 325 325 326 324 323 323 323 324 325 325 325 325 324 325 325 325 325 324 322 320 320 320 320 321 321 321 320 319 319 319 320 319 319 319 319 319 319 318 317 317 316 316 317 317 317 317 317 317 317 318 318 319 319 319 319 319 319 320 320 321 321 322 323 323 323 323 323 323 322 322 322
329 329 328 328 327 326 326 325 325 325 324 324 324 324 325 325 324 323 323 323 323 324 325 324 324 324 324 325 325 324 324 322 320 319 320 320 320 321 321 320 319 318 318 319 318 318 317 317 318 318 318 318 317 316 316 315 315 316 316 316 316 315 314 315 316 318 319 318 319 319 320 320 321 321 321 321 322 322 322 322 322 323 323 323 323
329 329 329 328 326 325 325 325 325 325 324 325 324 323 323 323 322 322 322 322 323 324 324 324 323 324 324 324 324 324 323 320 320 320 320 319 319 319 319 319 318 318 318 317 317 316 316 316 317 317 317 317 316 316 315 314 314 315 315 315 315 314 314 314 315 317 318 318 319 318 318 319 319 319 319 319 319 320 320 321 321 321 322 322 322
330 330 329 328 327 326 326 326 325 325 326 326 324 322 322 323 322 322 322 323 323 324 324 324 324 324 324 323 324 323 322 320 320 320 319 319 319 318 318 318 318 317 316 315 315 315 315 316 316 316 315 315 315 314 314 313 313 314 314 314 314 314 314 314 315 315 316 317 317 316 315 316 317 317 317 317 318 319 319 319 319 320 321 323 322
330 330 330 329 328 328 327 327 327 327 327 326 325 323 323 324 323 322 323 324 324 324 325 325 323 323 323 323 323 322 320 320 321 320 320 320 319 318 318 318 317 316 315 314 315 315 315 315 314 313 313 313 312 312 312 311 311 312 312 312 311 312 312 313 313 313 313 314 314 314 315 315 316 317 317 317 318 319 319 318 318 318 319 321 321
331 331 330 330 329 329 329 328 328 328 327 327 327 326 325 326 324 323 323 325 325 325 325 324 323 323 321 321 321 320 319 319 320 319 319 319 318 317 317 316 315 314 314 314 314 313 311 311 310 309 310 310 309 309 309 309 309 310 310 310 310 310 310 311 311 311 312 312 313 314 314 315 315 316 316 317 318 319 319 319 318 317 318 319 319
331 331 331 331 330 330 329 329 329 328 327 326 327 327 327 327 326 325 325 325 325 324 324 324 323 322 321 321 320 319 319 319 318 318 318 318 317 316 315 314 313 313 313 312 310 307 305 305 305 305 305 305 305 305 306 306 306 307 307 306 306 306 307 307 308 309 311 311 313 313 314 315 316 316 316 316 317 317 318 318 318 318 318 318 318
329 329 330 331 330 330 329 328 327 326 324 324 325 326 327 327 326 326 326 326 326 324 324 324 323 322 322 321 319 319 320 319 316 317 317 317 316 314 314 313 312 313 310 306 303 301 300 299 299 300 300 300 301 302 302 302 302 301 300 300 300 300 301 301 302 303 304 307 310 310 310 312 314 315 315 315 316 315 315 316 317 317 317 318 318
328 327 328 328 328 329 330 328 325 325 324 325 327 327 328 328 327 327 327 326 325 324 323 323 323 322 321 320 319 319 320 317 315 316 316 315 314 313 311 310 310 309 304 299 298 298 297 296 296 297 297 298 299 299 299 299 298 298 297 297 297 298 298 298 299 299 301 305 308 308 309 310 311 312 312 312 313 313 313 315 316 316 315 317 317
327 329 330 327 327 328 328 326 325 325 327 328 328 328 328 328 325 325 326 325 324 323 323 321 321 321 320 319 319 319 318 315 315 316 315 313 313 311 307 304 302 300 297 296 296 296 296 296 295 296 297 297 296 296 297 296 297 297 297 297 297 298 299 299 300 300 303 307 308 309 309 309 309 310 310 310 311 311 311 313 314 314 314 316 316
327 330 331 328 328 329 329 328 328 328 329 329 328 327 326 325 323 324 325 324 323 322 321 320 320 320 319 318 317 317 316 314 314 315 314 313 311 309 306 303 298 295 295 296 296 295 295 295 295 296 296 295 295 295 296 295 296 297 297 298 299 300 300 301 302 302 303 304 305 306 307 308 308 309 309 309 310 310 310 311 311 311 311 312 313
326 329 331 330 329 329 329 330 329 328 328 327 326 325 324 323 323 324 324 323 322 321 320 319 319 318 317 316 316 315 314 314 313 312 312 311 309 308 307 303 298 295 296 296 295 294 294 295 295 295 295 295 295 295 295 296 296 297 298 300 300 301 300 299 299 298 297 298 300 302 304 305 306 306 307 307 308 308 308 308 309 310 310 311 311
327 330 330 329 329 329 329 329 328 328 326 324 323 323 323 323 323 323 322 322 320 320 319 319 318 317 316 316 315 315 313 313 312 311 309 309 308 307 306 302 299 295 295 296 295 294 294 295 295 295 295 295 295 295 295 296 296 297 299 300 299 297 295 294 293 292 293 296 298 300 301 303 303 304 305 305 305 306 306 307 307 308 310 311 310
328 329 329 328 328 328 327 327 327 326 325 323 323 323 323 322 322 321 321 320 319 319 318 317 316 316 315 315 314 313 312 311 310 309 307 307 307 305 303 301 299 297 295 295 294 294 294 294 295 295 294 294 294 295 295 296 297 298 298 297 294 292 291 290 290 290 291 293 296 298 299 301 302 302 303 303 303 304 305 305 306 307 308 309 309
327 328 328 328 328 326 326 325 325 325 324 323 322 322 322 321 320 320 319 318 318 317 316 315 314 314 313 311 311 309 308 309 308 306 305 305 303 302 300 298 298 297 295 294 293 293 294 295 295 294 294 294 294 295 296 297 297 295 294 292 290 290 290 290 289 290 290 290 294 297 299 300 300 301 301 301 302 302 303 304 304 305 306 307 307
327 327 326 327 328 328 327 325 324 323 323 322 321 320 320 320 319 318 317 316 316 314 312 311 311 310 309 307 306 305 304 305 303 301 301 300 300 300 298 297 297 296 293 293 293 293 294 295 295 294 294 294 294 296 297 296 294 292 290 289 289 289 289 289 289 289 289 291 294 296 297 297 297 298 298 299 300 300 301 302 303 303 304 305 305
327 327 327 327 328 327 326 324 323 321 320 319 318 318 317 317 317 316 315 314 312 310 308 307 305 303 302 301 300 299 298 298 296 294 295 295 296 297 296 295 296 294 293 293 293 293 294 295 294 293 293 294 295 296 295 293 291 289 289 289 289 289 289 289 289 289 291 292 294 295 295 295 295 295 296 297 298 299 299 300 301 301 302 303 303
326 327 327 327 325 324 323 322 321 319 317 316 315 315 315 314 314 314 312 310 307 303 300 299 298 295 295 295 294 293 292 292 292 292 292 293 294 295 295 294 294 293 292 292 292 292 294 294 293 293 293 294 295 294 292 290 289 289 289 288 288 288 288 288 288 290 291 292 293 293 293 294 294 295 295 296 297 297 298 298 299 299 300 300 301
327 326 326 324 323 322 321 320 319 317 315 313 312 311 311 311 310 308 305 301 298 296 294 293 293 292 291 291 291 291 291 291 291 291 292 292 292 293 294 294 294 293 292 292 292 292 292 292 292 292 293 293 292 291 289 289 288 288 288 288 288 288 288 288 288 290 291 291 291 292 292 293 293 293 294 294 294 295 295 296 297 297 297 298 298
327 325 324 323 322 321 320 319 317 315 312 309 307 306 304 303 301 299 295 294 293 292 292 292 292 291 291 291 291 291 290 290 290 290 290 290 290 291 292 293 295 294 293 293 292 291 292 292 292 292 292 292 290 289 288 288 288 288 288 287 287 287 287 287 288 289 290 290 290 290 291 291 291 292 292 293 293 293 294 294 295 295 296 296 297
326 324 322 321 320 320 319 317 315 313 310 306 303 300 297 295 294 293 293 292 292 292 292 292 291 291 291 290 290 290 289 289 289 289 289 289 288 289 290 291 293 294 294 295 292 290 291 291 291 291 291 289 288 288 288 287 287 287 287 287 286 286 287 287 288 288 288 289 289 289 289 290 290 291 291 292 292 292 293 293 294 294 295 295 295
324 322 321 320 319 318 317 315 313 311 309 305 299 295 293 293 292 293 292 292 292 292 292 291 291 290 290 289 289 289 288 289 288 288 288 288 288 288 288 289 290 292 293 293 291 290 291 290 290 290 289 288 288 287 287 287 287 286 286 286 286 286 286 286 286 287 287 287 287 288 288 289 289 290 290 291 291 291 292 292 293 293 293 294 294
322 321 320 318 317 316 314 312 310 310 307 301 295 292 292 293 292 293 292 292 292 292 291 290 290 289 289 289 289 289 288 288 288 288 288 288 287 287 287 287 287 289 290 290 290 290 289 289 288 288 288 288 287 287 287 286 286 286 286 285 285 285 285 285 285 285 286 286 286 286 287 288 289 289 289 289 289 290 290 290 291 291 292 292 292
321 320 318 317 315 314 312 309 308 307 302 296 292 292 292 292 292 293 292 292 292 291 290 290 289 289 289 289 289 289 288 288 288 288 288 288 287 287 287 286 286 286 287 288 289 289 288 287 288 287 287 287 287 286 286 286 286 285 285 285 285 285 284 284 284 284 284 285 285 286 287 287 288 287 287 288 288 288 289 289 290 290 290 291 291
320 319 317 315 313 311 308 306 305 301 296 292 291 292 292 293 292 292 292 291 291 290 289 289 289 289 289 289 289 289 288 288 288 288 288 288 288 287 286 286 286 285 285 286 286 286 287 287 287 286 286 286 286 286 285 285 285 285 284 284 284 284 284 283 283 283 284 284 285 285 286 286 286 286 287 287 287 288 288 289 289 289 289 290 290
318 317 315 312 310 308 305 302 298 294 292 291 292 292 292 293 292 291 291 290 290 289 289 289 289 289 289 289 289 289 288 288 288 288 288 287 287 287 286 286 285 285 285 285 285 285 286 286 286 286 285 285 285 285 284 284 285 284 284 284 283 283 283 283 283 283 283 284 284 285 285 285 286 286 286 287 287 287 288 288 288 288 289 289 289
316 314 312 309 307 304 301 297 293 291 291 292 292 292 292 292 291 290 290 289 289 289 289 289 289 288 289 289 289 288 288 288 288 288 288 287 287 287 286 285 285 284 284 284 284 284 284 285 285 285 284 284 284 284 284 284 284 284 283 283 283 283 283 283 283 283 283 284 284 284 285 285 285 286 286 286 287 287 287 288 288 288 288 288 289
313 310 308 306 304 300 295 292 291 291 292 292 291 291 291 291 290 290 289 289 289 289 289 289 289 288 288 288 289 288 288 288 288 287 287 287 286 286 285 285 284 284 283 283 283 284 283 284 284 284 283 283 284 283 283 283 283 283 283 283 282 283 283 283 283 283 283 283 284 284 284 284 285 285 286 286 286 287 287 287 287 288 288 288 288
309 307 305 302 299 294 292 291 291 291 291 292 291 291 290 290 290 290 289 289 289 289 289 288 288 288 288 288 288 288 288 288 287 287 287 286 286 286 285 284 284 283 283 283 283 283 283 283 283 283 283 283 283 283 283 283 283 283 282 282 282 282 282 282 282 283 283 283 283 283 283 284 284 285 285 285 286 286 287 287 287 287 287 288 288
306 304 301 296 293 291 291 291 291 291 291 291 291 290 290 290 289 289 289 289 288 288 288 288 288 288 288 288 288 287 288 287 287 287 286 286 286 285 284 283 283 282 282 282 282 282 283 283 282 283 283 282 282 282 283 283 282 282 282 282 282 282 282 282 282 283 282 282 283 283 283 284 284 284 284 285 285 286 286 286 287 287 287 287 287
303 299 295 292 291 291 291 291 291 291 291 290 290 290 290 289 289 289 288 288 288 288 288 288 288 288 288 288 287 287 287 287 287 286 286 285 284 284 283 282 282 282 282 282 282 282 282 282 282 282 282 282 282 282 282 282 282 282 282 282 282 282 282 282 282 282 282 282 282 283 283 283 283 283 284 284 285 285 285 286 286 286 286 286 287
297 293 291 291 291 290 291 291 291 290 290 290 290 289 289 289 288 288 288 288 288 288 288 288 288 288 287 287 287 287 287 287 286 285 285 284 283 282 282 282 281 281 281 281 281 282 282 282 282 282 282 282 282 282 282 282 282 282 282 282 282 282 282 282 282 282 282 282 282 283 282 282 282 283 283 284 284 285 285 286 286 286 286 286 287
292 291 290 291 290 290 290 290 290 289 289 289 289 289 289 288 288 288 288 288 288 288 288 287 287 287 287 287 287 287 286 286 286 285 284 283 282 282 281 281 281 281 281 281 281 281 282 282 282 282 282 282 282 282 282 282 282 282 282 282 282 282 282 282 281 281 282 282 282 282 282 282 282 283 283 284 284 285 285 285 286 286 286 287 288
291 290 290 290 290 290 290 289 289 289 289 289 289 288 288 288 288 288 288 288 288 288 287 287 287 287 287 287 286 286 286 286 285 284 283 282 281 281 281 281 281 281 281 281 281 281 282 282 282 282 282 282 282 282 282 282 282 282 282 282 282 282 282 282 282 281 281 282 282 282 281 282 283 283 283 284 285 285 285 286 286 286 287 287 288
290 290 290 290 289 290 289 289 289 288 288 288 288 288 288 288 288 288 288 288 287 287 287 287 287 286 286 286 286 286 286 285 285 284 282 282 281 280 281 281 281 281 281 281 281 281 282 282 281 281 281 281 281 281 281 281 281 281 281 281 281 281 282 282 282 281 281 281 281 282 282 282 283 283 283 284 285 285 285 286 286 286 287 288 288
289 289 289 289 289 289 289 289 288 288 288 288 288 288 288 288 288 287 287 287 287 287 287 286 286 286 286 286 286 286 285 285 284 283 282 281 280 280 281 281 281 281 281 281 281 281 281 281 281 281 281 280 280 280 281 281 281 281 281 281 281 281 281 281 281 281 281 280 281 282 282 282 283 283 284 284 285 285 286 286 286 286 286 287 288
289 289 288 288 288 288 288 288 288 288 288 287 287 288 287 287 287 287 287 287 287 286 286 286 286 286 286 286 286 285 285 284 284 283 282 281 280 281 281 281 280 280 280 280 280 280 280 280 280 280 280 280 280 280 280 280 281 281 281 281 281 280 280 281 281 281 280 281 281 282 283 283 283 283 284 284 285 285 285 285 285 285 286 286 287
288 288 288 288 288 288 288 288 288 287 287 287 287 287 287 287 287 287 287 287 286 286 286 286 286 286 286 285 285 285 284 284 283 282 281 281 281 281 280 279 279 279 279 279 279 279 279 279 279 279 279 280 280 280 280 280 280 280 280 280 280 280 280 280 280 280 280 281 281 282 282 282 283 283 284 284 285 285 285 285 284 285 285 286 286
288 288 288 288 288 287 287 287 287 287 287 287 287 287 287 287 286 286 286 286 286 286 286 286 286 285 285 285 284 284 284 283 282 281 281 281 281 280 279 278 278 278 278 278 278 278 278 278 279 279 279 280 280 280 280 280 280 279 279 279 279 279 279 280 280 280 280 280 281 281 282 282 283 283 284 285 285 285 284 284 284 284 285 285 284
287 287 287 288 287 287 287 286 287 287 286 286 286 286 286 286 286 286 286 286 286 286 286 285 285 285 284 284 284 283 282 282 281 281 281 281 280 279 278 278 278 277 277 278 278 278 278 279 279 279 279 279 279 279 279 279 278 278 278 278 279 279 279 279 280 280 280 280 280 281 282 283 283 284 284 285 284 283 283 283 283 284 283 283 284
287 287 287 287 287 287 286 286 287 287 286 286 286 286 286 286 286 286 286 285 285 285 285 285 285 284 284 283 283 282 281 281 281 281 281 281 279 278 278 278 277 277 277 278 278 278 278 278 278 278 278 277 277 277 277 277 277 278 278 278 278 278 279 279 279 280 280 280 280 281 282 283 283 284 284 283 282 282 282 282 283 283 283 283 285
287 287 287 286 286 286 286 286 286 287 286 286 285 285 286 285 285 285 285 285 285 285 285 285 284 284 283 282 282 281 280 280 280 280 281 280 279 278 278 277 277 277 277 278 278 277 277 277 276 276 275 275 275 275 276 276 277 277 277 277 277 278 278 279 279 280 280 280 281 281 282 283 283 283 282 281 281 281 281 282 282 282 282 284 284
287 286 286 286 286 285 285 286 286 286 286 285 285 285 285 285 285 285 285 284 284 284 284 284 284 283 282 282 281 281 280 279 280 280 279 279 278 277 277 276 276 277 278 277 277 276 276 276 275 274 274 274 274 275 275 275 275 276 276 276 277 277 278 278 279 279 280 280 281 281 282 282 281 281 280 280 280 280 281 281 281 281 282 284 283
Wind_Speed
5 4 3 2 2 2 3 3 3 4 4 3 4 4 5 5 6 6 7 8 9 10 11 12 12 13 13 14 15 15 15 16 16 16 16 16 15 16 16 17 18 19 19 20 20 20 19 19 20 20 20 20 20 20 20 20 20 21 21 21 22 24 23 22 23 23 24 23 19 19 20 19 20 21 20 21 22 22 22 22 22 22 22 22 21
6 5 5 3 3 4 4 4 4 4 4 4 3 4 5 6 7 7 8 9 10 11 12 13 13 14 15 16 17 17 17 18 18 18 18 18 18 18 17 18 19 19 20 20 21 21 21 21 21 21 22 22 23 23 23 23 23 23 23 23 23 25 25 24 24 25 26 25 22 24 24 22 22 23 23 23 23 24 24 25 25 24 24 24 24
6 6 6 5 4 5 5 5 5 5 6 6 5 6 7 7 9 9 10 11 11 12 14 15 15 14 16 18 19 20 20 19 19 19 19 19 19 20 20 20 20 20 20 21 21 22 22 23 22 23 24 24 25 25 25 25 26 27 26 26 26 28 27 26 27 27 27 28 28 28 27 27 27 27 26 25 25 25 26 27 27 27 27 27 27
7 6 6 6 6 6 6 6 6 6 7 7 7 7 8 9 10 11 12 12 12 12 13 15 17 17 18 20 20 20 20 19 18 18 19 19 19 20 21 21 21 21 21 21 22 22 22 23 23 24 25 25 26 27 28 28 28 29 29 29 29 31 30 29 30 29 29 30 32 31 29 30 31 29 29 29 29 28 28 29 29 29 29 30 30
8 7 7 6 6 7 7 8 7 7 7 8 8 8 9 9 11 12 13 14 14 13 13 16 18 20 20 20 20 20 20 19 17 18 19 20 20 21 23 24 23 22 22 23 22 23 23 23 24 24 25 26 27 28 29 29 29 29 30 31 31 32 32 32 32 30 30 30 30 30 30 31 31 32 33 33 32 32 32 32 32 32 32 32 32
10 9 8 8 8 8 8 8 8 9 9 8 8 9 9 10 12 14 15 16 17 16 17 18 18 19 19 19 20 20 20 19 18 20 21 22 22 23 23 24 23 23 23 24 24 24 24 24 24 25 26 27 28 28 29 29 29 29 30 31 32 33 32 33 34 32 31 31 31 31 31 32 30 32 35 35 35 37 37 35 34 34 34 35 35
11 10 10 9 9 9 9 9 9 10 10 10 10 11 11 12 14 14 14 16 18 19 19 20 19 19 20 20 21 21 21 20 21 22 22 22 21 21 21 21 21 22 22 23 23 23 23 24 24 24 26 27 27 27 27 27 28 28 28 29 30 31 32 33 34 33 31 30 31 31 32 33 32 33 34 34 36 37 38 39 37 37 38 38 38
12 11 11 11 11 11 11 10 10 10 10 11 11 12 13 14 14 14 15 16 18 20 21 22 22 21 22 22 22 23 23 22 23 24 23 22 20 19 18 18 19 21 22 22 23 23 22 22 23 23 24 24 24 24 25 26 27 27 27 28 28 28 29 31 32 32 31 30 30 31 32 33 33 35 36 35 35 35 37 38 37 39 41 40 41
13 12 11 10 11 11 11 10 11 12 12 12 13 14 13 12 13 15 17 17 18 21 22 21 20 21 22 23 23 23 22 22 24 24 22 19 18 17 16 17 19 21 22 21 21 22 22 22 22 22 20 21 23 25 27 27 27 27 27 27 28 30 30 30 30 30 30 31 31 32 33 33 32 33 35 36 35 36 38 37 37 39 40 40 41
14 13 12 12 12 12 13 13 13 13 13 13 14 16 15 14 15 15 16 16 18 20 20 19 20 21 21 23 22 19 19 21 22 20 17 17 16 15 16 17 18 20 20 19 20 22 23 23 23 22 21 22 25 27 29 28 27 27 27 28 30 32 32 31 30 29 30 31 32 33 33 34 33 33 34 35 35 36 39 38 38 39 38 38 40
16 15 15 14 13 13 14 13 13 12 12 12 13 14 14 13 15 15 14 15 17 19 19 18 19 20 21 21 17 16 19 19 18 15 13 16 16 15 16 17 17 18 19 19 22 24 23 22 22 23 23 24 27 28 29 29 27 26 27 28 31 32 32 31 30 29 30 31 32 34 34 34 35 35 36 37 38 38 38 39 40 40 37 38 41
18 16 17 16 15 15 14 11 11 13 14 14 13 12 10 11 13 14 14 15 17 18 18 17 19 21 21 19 15 17 19 17 15 9 11 17 17 15 16 16 17 18 19 21 23 23 22 22 22 23 25 26 27 28 29 29 27 26 27 28 30 31 31 31 30 29 30 31 32 34 35 35 35 36 37 38 38 38 39 40 42 42 39 39 42
19 18 18 19 18 18 16 15 15 15 15 16 16 12 9 10 12 13 16 16 17 18 18 18 16 17 18 17 17 17 15 16 11 6 13 20 16 14 16 16 17 18 21 23 21 20 21 22 23 24 25 26 26 27 27 27 26 26 26 28 29 29 29 29 28 28 29 30 31 32 32 33 33 34 35 36 36 36 38 40 41 43 42 41 42
19 19 20 21 21 20 20 20 19 19 18 18 19 16 14 13 13 14 16 16 17 15 16 15 11 11 12 13 15 14 13 9 4 9 18 16 12 15 17 16 18 20 22 22 20 21 22 22 23 24 24 25 26 26 26 26 26 25 25 26 26 26 26 26 26 27 28 29 30 30 31 31 32 32 33 34 34 35 36 38 40 41 43 43 43
21 20 21 21 20 20 19 18 17 17 17 17 18 18 17 16 15 16 17 17 16 14 14 12 8 9 9 6 6 8 9 3 5 19 17 9 14 18 16 18 20 21 22 22 22 23 23 23 23 24 24 25 25 25 25 25 24 24 24 24 24 25 25 26 27 27 27 28 30 30 30 31 31 32 32 33 35 36 36 37 39 39 40 42 44
22 21 21 21 19 18 17 15 15 15 14 14 15 15 14 14 15 16 16 17 16 12 11 8 6 6 4 2 2 3 4 3 15 23 11 9 21 20 19 23 22 20 22 24 25 24 24 25 25 25 25 25 24 24 23 23 23 23 24 24 25 26 27 27 28 29 30 30 31 32 32 31 32 32 33 34 35 36 37 38 39 39 40 41 42
19 18 18 17 18 19 18 14 12 12 14 16 17 16 15 14 14 14 15 15 13 10 8 6 5 4 2 2 2 2 1 5 14 12 10 19 25 22 24 24 21 22 24 26 25 24 26 26 25 25 25 24 23 23 23 23 24 25 25 26 27 28 29 30 30 31 32 32 33 33 34 34 34 34 35 36 36 37 38 39 39 40 41 41 42
20 20 16 13 16 17 15 16 15 14 15 19 19 17 14 13 12 12 11 9 7 6 5 5 3 1 2 1 2 4 4 6 5 4 12 18 17 22 23 20 22 24 25 25 25 26 26 26 26 25 23 23 23 23 24 24 26 27 28 29 30 31 32 33 34 34 34 34 34 34 35 35 36 36 37 38 38 39 39 39 40 40 41 41 42
20 22 19 15 18 17 15 19 19 17 17 18 16 12 10 10 9 9 7 5 4 3 2 1 1 1 2 2 3 4 4 5 2 3 7 6 12 21 17 15 22 24 23 24 24 26 26 25 25 23 22 23 24 25 25 26 28 28 30 31 32 34 35 36 36 37 37 36 36 37 37 37 38 38 38 39 39 40 40 41 41 42 42 42 42
16 18 19 17 18 17 16 17 17 15 13 11 9 8 7 7 7 5 4 4 3 2 2 1 2 2 3 4 3 3 5 7 4 4 3 3 10 14 12 17 22 23 22 21 22 25 25 24 23 23 24 25 26 26 27 28 30 31 32 33 34 35 36 38 39 40 40 40 40 39 38 38 39 39 39 40 41 41 41 42 42 42 43 43 43
14 16 17 16 17 16 14 13 13 11 8 7 8 9 7 5 4 4 4 3 2 1 2 4 4 4 4 5 5 6 9 8 6 7 6 6 6 6 13 18 20 25 23 18 22 23 21 20 21 23 25 25 27 27 27 29 30 32 33 33 35 38 41 42 43 44 43 42 42 41 40 39 39 40 41 41 42 42 42 43 43 42 42 42 42
15 16 15 16 16 15 13 10 10 9 9 10 9 9 8 6 5 4 4 3 3 4 6 5 4 4 5 6 6 8 8 5 6 9 8 6 5 8 14 14 16 24 22 19 24 22 18 17 19 24 25 25 26 26 27 29 29 31 33 35 40 43 44 44 44 45 44 43 43 42 40 40 40 40 41 42 43 43 43 43 43 43 43 43 43
14 15 15 16 17 17 16 14 13 13 12 11 10 9 9 8 8 7 6 7 7 8 8 6 6 6 5 5 4 4 3 3 6 9 7 5 6 9 15 17 17 19 21 24 24 21 19 15 17 23 24 24 24 23 24 25 27 32 36 39 43 43 44 44 44 45 46 46 44 42 40 40 40 40 41 43 43 43 43 43 44 44 44 44 44
14 15 15 16 17 18 17 15 14 12 11 11 12 11 11 12 12 11 10 10 10 9 7 5 5 4 2 1 1 1 0 2 4 5 4 5 7 8 14 17 13 15 24 25 22 21 17 14 19 24 23 23 21 20 21 24 30 37 41 42 41 42 44 44 45 46 46 46 44 42 43 43 43 44 43 44 44 44 44 44 44 44 44 45 45
16 16 18 18 18 16 15 14 13 11 11 13 15 15 14 14 14 13 12 10 8 4 3 4 4 5 5 4 4 3 3 3 3 4 4 6 7 8 13 13 10 17 23 19 19 21 13 12 21 23 21 20 17 17 22 29 38 41 41 42 41 41 43 43 43 44 43 43 42 42 43 44 45 45 45 44 44 44 44 44 45 45 45 45 46
19 19 20 19 18 16 15 14 12 12 13 13 14 14 14 14 13 11 8 5 6 8 10 10 11 10 9 7 7 6 5 6 6 7 8 8 7 8 11 13 12 15 17 16 18 18 11 14 21 22 20 16 15 23 32 38 43 43 41 42 42 42 43 43 42 41 41 41 41 42 41 42 42 42 44 44 44 45 45 45 45 46 46 46 46
22 22 21 19 18 16 14 13 13 13 12 11 11 10 10 10 10 10 11 13 13 14 14 13 12 10 9 8 6 6 6 6 7 8 9 9 9 8 8 9 8 8 10 12 13 14 15 18 20 19 17 16 23 33 40 43 43 43 42 40 42 43 41 42 41 39 40 39 39 40 39 40 41 41 42 43 44 45 45 46 46 46 47 47 47
24 22 20 19 18 16 15 14 13 12 10 10 11 12 13 14 16 17 18 17 16 16 14 12 11 9 8 6 5 5 5 5 5 6 8 8 9 9 7 6 5 5 7 7 4 8 16 17 17 15 13 21 34 38 38 41 40 38 39 38 39 40 39 38 37 36 36 36 36 38 39 40 40 41 42 42 43 44 44 46 46 46 47 47 48
24 22 20 19 17 16 16 15 14 12 12 14 16 17 18 19 19 19 19 17 15 15 13 11 9 8 6 4 3 4 4 4 5 5 6 7 8 8 7 6 4 4 5 6 4 6 13 16 13 17 25 32 38 40 38 38 37 35 37 38 38 38 39 36 35 35 35 35 36 37 39 40 40 41 42 42 43 43 44 45 45 45 46 47 48
24 22 20 19 18 17 16 15 15 14 15 17 18 19 20 20 19 18 18 15 13 12 11 9 8 6 5 3 3 5 5 5 6 6 7 7 8 8 7 6 5 3 3 7 8 6 13 19 18 24 37 41 39 41 40 37 39 39 38 40 39 38 39 38 36 35 35 36 37 38 40 40 40 41 42 43 44 44 44 44 45 45 45 47 48
23 21 20 19 19 18 16 16 16 17 18 19 20 21 20 19 18 17 16 13 11 10 9 7 7 6 4 4 5 6 7 7 7 8 9 9 10 10 9 8 7 6 5 7 7 10 17 26 31 34 39 43 43 42 42 40 41 42 42 42 42 40 40 40 39 37 36 38 38 39 40 40 40 42 43 44 45 45 45 46 46 46 46 48 48
22 20 20 20 20 19 17 18 19 21 22 22 23 22 20 18 17 15 14 12 9 8 8 7 6 5 5 5 6 7 8 8 9 9 10 11 12 12 12 12 10 9 9 8 8 20 32 31 34 39 38 42 44 41 43 47 44 42 42 43 43 43 41 41 41 39 37 38 39 38 38 39 41 43 44 44 44 44 45 45 46 46 47 48 48
22 22 22 21 20 19 20 21 23 24 25 24 23 21 19 17 15 13 12 11 9 8 7 6 6 6 6 6 7 8 8 9 10 11 11 12 12 12 12 13 13 11 12 13 11 22 38 36 33 38 37 37 41 41 42 47 49 46 43 41 42 43 42 42 43 41 38 37 39 39 39 41 43 44 44 44 44 44 44 44 45 45 46 47 47
23 23 22 21 21 22 24 25 26 26 26 25 22 19 17 16 15 13 11 10 9 8 7 7 7 6 6 6 7 8 9 10 10 11 11 12 12 12 13 13 14 13 12 16 16 18 31 41 41 39 35 32 36 40 40 42 47 49 47 44 45 45 44 43 43 43 40 38 39 41 42 43 44 43 43 43 44 44 44 44 45 46 47 47 47
23 22 22 23 24 26 27 28 28 27 26 24 21 18 16 15 14 13 11 10 9 8 7 7 6 6 5 6 7 8 9 9 10 11 11 12 12 13 14 14 15 16 14 15 18 19 25 38 43 39 36 36 36 37 39 40 41 43 46 48 48 49 49 47 45 46 44 38 38 42 45 44 43 42 42 42 44 43 44 45 46 47 47 47 47
24 23 24 26 28 29 30 30 28 27 25 23 21 18 15 14 13 12 11 9 8 7 6 6 6 6 5 6 8 9 9 9 10 11 11 12 14 14 16 16 16 17 18 16 17 20 23 32 41 41 37 37 38 37 38 40 41 41 44 46 47 49 51 49 47 48 47 42 41 44 45 43 41 41 41 43 44 43 44 46 46 47 46 46 47
25 26 28 29 31 31 31 30 28 26 23 21 19 17 15 14 12 11 10 8 7 7 6 6 6 5 6 7 8 9 10 10 11 12 13 13 15 16 16 18 18 18 20 19 19 21 22 26 36 43 42 38 40 39 35 35 40 44 45 48 49 49 51 52 50 46 45 46 48 50 47 42 40 40 41 44 44 43 43 45 46 46 46 46 46
28 30 31 32 32 31 30 28 26 24 22 20 18 17 15 13 11 10 9 8 7 6 6 5 5 5 6 7 8 9 10 11 12 12 14 14 15 17 17 17 19 19 21 22 21 21 23 25 30 38 42 40 38 40 37 33 36 40 43 48 52 52 53 56 56 51 47 46 47 49 47 44 42 41 43 46 45 42 43 45 45 46 47 47 48
33 34 34 33 32 30 29 27 25 23 21 19 17 16 14 12 11 10 9 8 7 6 5 5 5 5 6 7 8 9 9 11 11 12 13 14 15 16 17 17 18 20 21 21 21 21 23 25 27 30 36 37 35 37 38 36 37 38 36 38 46 53 55 55 58 58 55 50 45 45 48 48 45 44 45 49 47 42 44 47 46 47 47 48 49
35 35 35 33 31 29 27 25 23 21 20 18 17 15 14 12 11 10 9 8 6 6 6 5 5 6 6 7 7 8 9 9 10 11 12 13 14 14 15 16 17 19 20 21 22 24 23 23 24 26 31 34 34 34 38 37 36 37 37 36 39 46 49 52 57 57 53 50 47 47 52 56 54 50 47 50 49 43 44 47 46 47 48 48 51
35 34 33 32 30 29 26 24 22 21 19 18 16 14 13 12 10 10 8 7 6 5 6 6 6 6 6 6 7 7 8 8 9 10 11 11 12 13 14 15 17 18 20 21 22 24 24 23 22 23 26 30 29 30 35 36 33 36 42 41 39 43 48 52 57 55 46 42 45 49 57 60 57 53 49 49 48 45 44 45 45 47 50 49 49
34 33 31 30 29 28 26 24 22 21 19 17 16 14 12 11 9 9 8 6 6 5 5 6 6 6 6 6 7 7 8 9 10 10 11 10 11 11 12 13 16 18 20 23 22 22 24 24 23 22 24 28 29 29 32 36 37 39 41 40 40 45 47 43 47 54 48 40 43 53 60 59 53 52 51 48 46 45 44 43 45 48 50 48 48
33 32 31 30 28 26 25 24 22 21 19 17 16 14 12 10 9 7 7 5 5 5 5 6 6 6 6 6 7 7 8 10 11 11 11 12 13 12 11 12 14 16 19 22 24 24 24 25 25 23 22 27 32 33 33 36 39 40 40 41 40 41 38 29 29 42 48 45 46 51 57 57 52 50 51 47 45 45 43 43 46 49 49 47 48
33 32 31 29 28 26 25 24 22 21 19 17 15 13 11 10 8 6 6 5 5 5 6 5 5 5 5 6 7 8 9 10 11 12 12 15 16 14 13 14 14 15 16 18 22 25 25 26 28 26 24 27 32 33 32 35 39 42 42 41 38 37 37 31 26 35 47 50 46 44 48 53 51 48 48 47 44 43 42 43 47 49 48 47 47
33 32 31 29 28 26 25 24 22 20 18 16 14 13 11 10 8 6 5 4 5 5 5 5 5 5 6 6 7 8 9 10 11 12 14 18 19 17 16 17 18 17 16 16 17 20 22 24 27 29 28 29 30 32 34 36 38 40 39 38 38 38 39 38 36 44 52 49 42 39 41 46 49 47 47 45 42 42 42 43 46 49 49 48 46
34 32 31 29 28 26 24 23 22 20 18 16 14 12 11 9 7 6 5 4 5 5 5 5 5 6 7 7 7 8 9 10 11 14 17 19 20 20 20 21 21 19 18 18 18 17 19 21 24 29 30 30 32 35 37 36 35 36 36 37 39 40 41 42 45 51 51 42 37 34 31 38 47 46 45 44 40 40 42 43 45 47 45 45 48
34 33 31 30 28 26 24 23 21 20 17 15 13 12 10 9 7 6 5 4 4 5 5 5 5 6 7 7 8 9 9 10 12 14 16 18 20 21 22 22 21 21 20 20 19 18 19 20 22 27 30 32 34 35 35 35 34 34 36 36 37 38 40 42 44 46 45 40 37 30 24 32 43 42 42 42 38 39 44 44 43 43 42 45 52
33 32 31 29 28 26 24 22 21 19 17 15 13 11 10 8 7 5 5 4 4 5 5 6 6 7 7 7 8 9 9 11 13 13 14 17 19 21 23 22 22 22 22 21 20 18 19 20 22 25 28 30 30 30 31 31 31 32 34 34 35 35 35 33 32 37 42 41 42 36 26 30 38 37 37 39 36 39 45 42 37 39 43 48 50
33 32 30 28 27 26 24 22 20 18 17 14 12 11 9 7 6 5 4 4 5 5 6 7 7 7 7 7 8 8 10 12 13 13 14 16 19 20 23 24 24 25 25 24 22 19 18 20 23 24 25 26 27 27 27 26 26 28 30 31 33 34 31 23 20 28 38 42 44 40 30 29 35 34 33 36 37 37 39 37 35 39 44 46 43
33 32 30 28 27 24 23 21 18 17 16 14 12 10 9 7 5 4 3 3 4 5 6 7 7 6 6 7 8 8 10 11 11 12 14 15 17 20 22 24 26 27 26 25 26 25 23 24 25 25 25 26 26 25 24 23 23 24 25 27 31 32 29 22 20 25 33 37 42 41 31 28 33 32 30 33 33 31 31 31 33 38 41 37 33
33 31 29 28 27 24 21 20 17 16 15 14 12 10 8 6 5 3 3 3 4 5 6 6 6 6 6 6 7 8 9 10 10 12 12 13 15 17 18 21 25 27 26 27 29 31 31 30 30 29 29 28 26 25 25 24 23 23 23 24 28 30 28 27 27 23 18 24 39 43 32 26 30 31 27 22 17 21 28 30 31 34 31 25 26
Wind_Direction
231 237 253 292 319 294 288 302 303 284 280 281 270 266 273 280 286 293 301 307 314 322 327 331 330 326 322 323 325 326 325 321 318 317 315 313 311 308 307 305 304 304 302 301 300 298 297 296 296 298 300 300 299 299 298 297 296 293 291 286 280 281 281 279 276 270 273 275 265 268 273 270 271 268 270 274 270 267 266 267 268 267 263 261 261
245 257 265 282 300 298 301 309 319 312 310 318 310 307 309 308 310 311 314 316 319 324 330 334 335 333 332 332 332 330 326 324 322 320 318 317 316 314 312 310 308 306 304 301 299 298 298 298 298 299 299 299 300 300 301 301 300 299 296 294 291 288 283 278 274 270 271 270 264 270 272 265 267 265 267 272 269 265 262 264 267 265 260 257 258
249 260 270 275 282 291 298 302 312 318 318 321 319 319 321 321 323 324 322 322 325 328 330 332 335 333 331 330 328 326 324 321 319 318 317 317 317 316 314 313 311 310 308 305 302 300 298 299 299 300 300 300 301 301 302 302 301 300 299 298 296 292 289 285 280 275 272 266 263 272 271 265 267 264 263 267 267 265 262 262 264 263 258 256 258
249 258 271 274 276 280 284 290 301 311 311 311 311 312 318 324 326 326 323 321 322 324 325 325 326 325 321 316 314 317 320 319 317 317 317 316 317 317 315 313 310 308 308 307 306 304 301 299 300 301 303 303 303 302 303 304 302 301 300 299 297 295 294 292 289 286 281 271 269 275 274 268 266 263 263 263 263 264 262 262 263 261 258 256 258
248 258 266 269 274 277 282 288 292 294 297 301 304 306 311 319 325 324 321 319 317 317 319 316 311 312 312 310 311 315 318 316 315 316 316 315 315 315 317 316 313 311 310 310 309 307 305 303 302 303 304 304 304 304 304 305 305 304 302 300 298 295 296 296 295 295 291 286 283 282 282 278 268 263 265 263 262 263 261 263 263 259 257 257 258
249 255 259 265 271 275 283 292 294 291 291 295 298 303 306 312 318 316 316 318 315 313 313 309 306 311 313 311 312 315 316 314 315 318 317 314 312 312 315 316 315 316 316 315 313 311 309 308 307 306 306 306 306 305 304 304 306 308 306 304 302 298 298 298 297 296 294 295 295 292 292 290 279 271 270 265 263 262 260 262 261 258 257 257 257
250 252 257 266 271 277 285 292 294 293 293 293 295 298 298 303 304 302 307 308 303 304 305 304 304 308 312 312 313 315 314 314 318 321 320 317 314 313 316 317 320 322 323 322 319 318 316 316 315 313 312 311 311 311 310 309 309 311 311 310 307 305 303 300 298 298 297 298 300 299 297 297 291 286 285 277 269 266 264 264 261 258 257 256 256
250 249 255 262 270 278 282 283 286 291 294 291 290 290 288 288 288 291 299 299 296 299 302 303 301 299 306 312 313 312 312 312 316 319 320 320 320 322 325 328 331 331 329 329 328 328 327 326 325 322 321 322 323 324 322 319 316 316 316 315 311 309 306 303 302 302 301 301 301 301 300 299 296 294 294 290 283 276 270 268 266 264 261 258 258
250 250 254 262 273 276 275 278 281 288 294 295 296 297 294 287 285 290 292 293 298 302 305 305 303 304 309 313 311 311 312 313 317 321 323 327 331 336 341 342 343 340 336 336 338 338 337 336 334 330 329 331 334 332 327 324 320 318 318 318 317 314 310 306 305 304 303 303 302 301 301 299 297 295 294 293 291 286 281 279 276 271 266 262 261
252 254 256 263 274 275 274 279 281 283 285 291 299 298 297 295 296 298 293 292 296 299 303 306 310 312 312 312 313 315 316 318 326 332 338 344 348 348 346 346 348 348 345 344 345 343 341 338 336 333 333 333 332 329 326 323 320 318 318 318 319 317 314 309 306 304 303 302 302 301 300 298 295 294 293 292 292 290 289 290 286 280 272 267 265
254 259 260 262 269 272 272 278 280 280 275 282 299 296 290 291 295 296 292 289 288 291 297 304 311 310 308 313 320 323 322 327 335 344 358 359 351 343 343 345 348 350 349 345 341 339 337 336 334 331 329 327 326 324 322 320 318 317 317 317 317 316 315 313 309 304 303 303 302 301 300 300 297 294 293 292 293 293 292 291 290 287 283 278 273
252 259 259 259 267 271 268 270 275 278 275 279 295 294 285 287 290 292 291 287 285 288 292 300 306 308 312 318 321 322 325 332 338 352 7 354 344 343 347 347 346 349 346 338 334 334 333 331 328 326 323 321 320 319 319 318 318 316 316 316 316 315 314 314 312 307 306 306 305 304 303 303 302 299 296 294 295 295 293 291 290 290 289 287 281
253 256 254 255 264 270 268 267 269 272 274 276 281 274 267 282 284 286 289 289 291 289 288 297 306 312 319 320 318 322 329 336 344 7 349 341 345 350 348 345 344 345 338 332 332 331 328 326 323 323 322 322 322 322 323 323 323 322 320 319 318 318 316 315 313 310 309 308 308 307 306 305 304 302 299 297 297 296 293 292 290 289 288 289 287
255 257 257 256 260 264 266 267 269 271 271 270 272 267 265 276 279 284 287 291 298 291 287 295 300 309 319 318 321 331 338 346 20 349 336 338 352 350 344 343 339 337 333 331 333 330 329 329 329 330 330 331 331 330 331 331 332 331 329 329 328 327 326 323 321 318 315 313 313 311 310 309 307 305 302 301 299 297 296 294 292 290 289 288 287
254 255 259 261 263 266 267 270 271 271 271 267 269 274 272 270 273 281 286 289 294 291 294 302 300 310 322 319 330 342 336 6 1 335 336 352 349 343 341 337 333 333 333 333 335 335 338 340 339 340 339 339 338 337 337 338 340 340 340 340 339 338 337 335 332 328 323 320 318 317 316 314 311 309 307 305 303 301 300 297 296 294 292 290 288
253 249 255 260 261 263 263 263 265 265 267 266 268 276 275 270 271 279 286 284 282 287 299 313 318 322 328 305 337 347 319 351 339 332 335 339 334 333 332 332 333 334 334 336 340 343 346 346 345 345 345 345 344 343 343 345 346 346 346 346 344 343 340 338 336 333 330 326 323 321 319 317 314 312 310 309 307 305 303 301 299 297 295 294 292
253 247 254 259 252 254 257 251 250 253 259 263 265 269 271 270 270 277 288 285 278 283 294 310 324 328 329 304 326 328 274 335 336 328 320 323 325 328 331 335 338 337 337 341 346 349 348 348 349 349 350 350 349 349 349 349 348 346 346 346 344 342 340 338 336 334 331 327 323 321 319 317 315 313 311 310 309 307 305 304 302 300 298 296 294
253 247 245 250 246 248 255 251 243 242 255 266 269 271 270 267 267 276 288 282 273 282 286 301 329 0 0 342 269 272 282 323 331 301 316 320 319 323 332 340 340 339 343 347 349 350 349 349 349 351 354 354 353 353 351 349 347 345 344 344 344 341 339 337 335 333 330 325 322 319 317 316 314 312 311 310 309 307 306 304 303 301 299 298 295
249 249 243 245 251 247 247 251 246 243 257 266 268 272 270 264 268 277 279 262 252 252 239 287 37 50 352 335 295 280 296 316 289 281 316 314 309 317 327 336 334 337 343 348 350 349 350 353 352 354 357 357 355 353 351 349 347 345 344 344 342 340 338 336 334 331 327 323 321 318 316 314 313 312 310 309 308 307 306 304 302 301 299 298 296
240 248 248 245 253 252 248 255 254 249 255 260 263 275 274 265 266 262 247 237 234 209 182 315 352 351 335 337 335 325 335 332 315 322 322 287 308 313 313 319 326 333 337 343 348 347 350 355 358 358 357 357 356 353 351 349 346 345 344 343 341 338 335 333 329 326 324 322 321 318 316 314 312 311 310 309 308 306 306 304 302 300 299 297 296
236 245 250 242 248 254 251 253 248 237 243 264 270 272 264 244 232 222 208 199 185 205 291 308 310 315 318 319 319 319 330 333 326 336 323 292 303 305 311 320 325 332 338 342 341 344 350 355 360 358 355 355 354 353 351 349 347 344 342 340 336 333 330 328 327 326 325 324 323 320 318 315 314 313 311 310 309 307 306 304 303 301 299 298 297
237 236 238 237 243 251 250 246 236 231 255 271 259 243 237 223 208 209 216 233 256 281 294 296 290 294 300 304 314 323 334 340 329 337 330 298 289 296 311 321 319 325 338 341 336 342 350 354 358 354 353 353 353 353 351 348 345 341 337 333 330 329 328 328 329 328 327 326 324 322 320 318 316 315 313 312 310 309 307 305 304 302 301 299 298
234 227 230 234 234 232 234 238 239 239 248 249 234 227 236 235 233 237 249 263 273 280 281 273 263 270 283 294 313 335 347 335 319 332 336 312 305 300 309 319 311 309 325 333 336 344 350 354 354 350 350 351 351 351 347 344 340 334 330 328 328 329 330 330 329 328 328 328 327 324 322 320 318 316 315 313 311 310 308 307 305 304 302 301 299
225 226 229 226 218 213 216 223 225 226 231 235 238 247 248 243 243 248 255 262 266 267 260 248 245 246 251 304 21 66 354 305 310 331 338 317 312 296 304 318 311 301 319 331 336 340 349 358 350 347 348 349 350 348 342 335 332 329 328 328 330 331 331 330 330 329 329 328 326 324 322 321 319 318 316 314 313 311 310 308 307 305 304 302 300
216 220 218 213 211 213 217 219 220 232 247 247 246 248 245 241 242 245 249 252 250 237 180 149 127 114 103 89 80 77 66 40 14 6 358 340 328 306 308 317 301 300 318 330 331 334 349 357 345 345 348 351 351 340 333 329 328 330 331 331 332 332 330 330 329 328 327 326 324 323 321 320 319 318 317 315 314 313 311 310 309 307 305 303 302
216 212 210 210 211 213 214 219 232 247 249 242 238 237 234 233 232 229 219 188 149 123 114 111 107 103 99 97 91 82 69 47 29 18 8 1 355 337 327 325 306 300 314 325 327 331 336 336 339 344 348 350 343 331 329 330 331 333 334 332 331 331 330 329 329 328 326 324 323 322 320 319 318 317 316 315 314 313 311 310 309 308 306 305 304
215 209 209 210 210 210 215 226 237 236 229 223 220 211 202 196 182 162 141 127 123 117 112 110 109 107 102 99 90 77 61 38 25 16 11 8 3 358 351 343 322 300 307 314 319 325 324 328 336 344 348 338 329 329 330 331 333 333 332 331 330 329 329 329 328 327 324 324 323 322 320 319 317 315 314 313 312 311 310 309 308 307 307 305 305
210 208 209 208 208 213 219 222 221 214 199 181 169 157 148 143 137 133 127 123 124 121 119 119 117 112 105 97 83 70 55 33 18 9 9 9 5 4 9 9 345 318 314 307 313 329 325 329 337 338 332 325 326 329 331 332 333 332 330 330 328 327 329 329 327 324 324 323 323 321 318 317 315 314 313 312 311 310 309 308 307 306 306 305 304
206 207 208 206 208 212 212 207 202 193 172 155 149 143 139 134 132 131 127 127 130 127 126 127 122 118 114 106 86 70 58 41 26 19 17 11 8 7 9 10 349 324 320 314 325 330 322 328 337 325 318 323 328 329 331 332 332 332 330 329 329 329 329 329 327 326 325 325 324 321 319 317 316 316 315 313 312 310 308 307 306 305 305 304 303
202 204 203 203 204 203 202 197 189 177 163 154 148 143 142 139 136 135 131 133 136 130 129 129 123 121 120 108 85 71 66 57 42 33 28 21 20 18 13 9 350 322 294 303 310 312 322 327 324 319 321 325 328 329 330 332 331 331 332 331 331 331 330 330 330 329 327 327 325 322 320 319 318 318 317 316 313 311 310 308 307 306 305 304 303
200 201 201 202 199 195 194 190 180 170 162 156 151 147 147 144 141 138 135 137 139 133 131 128 121 121 117 101 81 70 60 52 44 34 26 22 21 17 12 11 4 343 304 295 293 293 310 318 315 317 323 324 326 329 329 330 331 332 333 332 332 332 331 330 329 330 328 327 325 323 321 320 320 319 318 316 315 312 311 309 308 307 305 304 302
199 202 202 200 196 192 188 181 172 165 161 156 152 151 150 146 143 141 139 141 143 138 133 126 118 112 102 86 71 62 52 42 35 27 20 17 13 9 5 360 1 358 329 304 274 291 304 311 313 317 322 323 326 329 328 329 331 333 333 332 331 330 330 328 327 328 328 326 325 323 322 321 320 319 318 317 316 314 313 312 310 309 307 305 303
200 201 199 197 194 188 179 171 165 160 159 156 154 155 153 149 147 146 146 148 147 139 132 124 113 100 84 73 61 52 42 32 24 19 13 8 2 357 356 351 348 355 343 320 291 295 306 312 313 315 321 324 325 328 329 330 331 332 332 331 329 328 327 326 326 326 328 327 325 322 321 320 319 318 318 317 316 316 315 315 313 312 310 307 305
198 198 195 191 186 178 170 164 161 159 158 157 156 157 156 153 151 150 151 150 146 138 131 120 105 91 77 65 54 45 35 23 17 12 3 356 353 346 346 348 342 345 347 330 315 302 306 311 314 316 322 325 324 326 329 329 329 330 329 328 328 327 326 326 325 325 327 327 324 321 319 319 319 318 317 316 315 316 317 316 315 313 311 309 307
193 193 191 184 176 170 165 162 161 161 160 158 158 159 158 156 155 152 151 149 145 137 128 115 99 87 73 54 43 37 27 16 9 4 358 350 348 346 343 345 341 337 341 335 323 312 306 310 314 317 321 324 323 325 327 326 326 326 326 326 327 327 326 326 325 324 325 325 323 320 318 317 318 317 316 315 314 315 317 316 315 314 312 311 308
188 186 183 176 170 167 164 163 163 163 162 160 159 160 159 159 157 154 151 148 143 132 120 105 91 76 57 40 32 24 14 10 5 357 356 350 345 346 342 339 340 334 333 334 326 317 309 307 311 315 319 321 321 323 325 325 325 325 324 324 325 325 324 324 323 323 324 325 322 319 318 316 316 317 316 314 312 314 315 315 314 314 313 311 309
182 177 174 170 168 167 166 166 165 164 163 162 161 161 160 160 160 157 152 146 137 125 111 96 80 59 41 31 24 17 7 4 5 355 352 351 343 341 340 337 337 334 331 332 329 322 312 305 308 314 317 318 319 320 324 325 324 325 325 324 324 324 322 322 321 321 323 324 323 321 319 316 316 317 316 312 311 313 314 313 313 312 311 310 309
175 171 169 167 168 168 167 167 166 164 163 163 164 164 162 162 161 157 150 144 137 124 109 92 74 50 35 28 18 14 7 1 2 355 347 345 340 338 339 337 335 333 332 332 331 325 316 308 307 310 313 316 318 319 322 326 324 323 324 324 324 324 323 322 321 322 323 323 322 319 317 316 316 317 316 312 310 312 314 313 313 312 310 310 310
171 168 167 167 168 169 168 167 166 165 164 165 166 165 164 164 161 157 153 146 139 126 110 90 71 50 32 30 21 12 9 2 356 351 344 341 338 337 338 336 335 335 333 331 329 324 318 312 309 308 310 313 315 316 320 325 324 322 323 323 321 322 323 321 320 321 323 323 322 319 317 316 316 317 316 313 311 314 317 316 316 315 314 314 313
170 168 168 167 168 168 167 167 166 166 167 166 167 167 166 164 161 158 155 148 141 128 112 91 71 57 39 32 26 12 6 1 352 348 345 340 336 337 339 338 338 336 331 328 326 322 317 312 309 308 309 310 314 317 321 326 326 324 325 322 316 317 320 319 317 318 321 323 323 321 318 318 318 319 318 316 315 318 319 318 318 317 316 316 316
169 168 169 169 169 168 166 167 166 167 169 168 167 168 166 164 164 160 156 149 140 123 104 89 73 64 50 32 24 13 2 355 350 346 344 341 338 338 341 341 338 334 328 324 322 319 316 312 309 311 311 310 314 320 322 324 324 321 322 321 317 316 318 316 315 316 320 323 323 321 319 319 319 319 318 316 317 319 320 319 318 318 318 318 316
169 168 169 171 171 170 167 167 167 167 169 168 167 167 166 166 168 164 160 150 133 113 93 84 73 61 51 34 19 9 358 352 350 348 345 346 348 344 341 338 334 330 325 320 318 316 313 311 310 314 315 310 312 318 318 318 319 318 319 321 319 318 317 315 314 317 321 326 326 321 318 318 319 318 317 316 317 319 319 318 319 320 319 317 314
170 170 172 172 171 171 170 169 170 169 169 169 167 167 167 168 172 171 163 148 126 109 90 77 71 58 44 31 15 4 359 354 351 353 352 354 358 351 339 332 327 324 321 317 315 314 312 309 308 311 312 308 310 315 315 316 318 319 319 318 316 315 315 315 314 315 319 326 326 317 313 316 319 316 315 316 318 319 319 319 320 320 319 317 315
172 172 174 174 172 172 172 171 171 169 168 169 168 167 168 168 172 175 162 139 116 98 81 67 61 55 40 27 17 4 359 357 353 353 356 0 1 351 334 327 323 318 316 312 311 311 310 310 308 308 309 307 308 311 314 317 318 317 316 315 315 316 315 312 308 307 313 321 321 312 308 314 318 316 313 316 318 318 320 320 320 320 320 318 316
174 174 175 174 172 172 173 172 171 169 168 169 169 168 170 171 171 167 153 129 106 85 74 63 49 41 34 26 20 9 2 1 356 355 360 2 356 342 330 326 323 321 316 310 306 304 303 304 303 302 304 306 306 308 312 314 314 313 314 315 317 317 312 309 306 305 310 317 318 310 305 310 317 315 312 315 318 319 320 321 320 321 321 320 319
175 175 174 174 173 173 174 173 171 168 167 170 172 171 170 172 169 160 146 123 101 82 71 64 47 33 28 23 18 14 9 5 1 2 4 358 345 333 328 326 326 327 322 316 313 306 302 300 297 298 303 305 305 306 310 314 314 313 315 315 315 313 309 307 306 305 308 314 316 309 302 308 314 312 309 313 318 320 321 321 321 322 322 323 322
177 177 175 175 174 173 174 174 172 168 168 171 174 174 173 171 168 157 142 120 99 87 80 69 50 38 31 22 19 17 13 9 9 8 1 347 333 327 327 328 329 327 324 324 322 312 304 302 298 299 304 306 306 308 312 316 315 313 313 312 311 311 309 307 305 306 310 316 318 310 296 305 312 309 307 313 321 322 321 322 324 325 326 325 323
177 177 176 176 175 174 173 175 174 169 169 173 176 177 176 171 166 155 139 120 104 95 86 72 54 43 34 24 23 20 16 18 16 6 351 337 329 328 328 329 329 326 326 332 332 317 304 303 303 303 304 306 308 311 314 315 314 314 314 314 315 315 311 305 305 309 313 318 321 314 299 302 311 309 308 316 325 323 320 323 329 330 329 329 330
176 176 176 176 176 177 175 175 177 173 170 173 179 181 178 172 165 155 140 122 110 97 84 72 56 45 36 28 27 23 22 25 15 356 345 336 331 331 330 329 329 328 331 337 336 323 309 306 308 308 310 312 314 315 316 317 317 320 321 319 318 318 314 309 309 311 312 315 321 319 308 305 313 316 317 322 325 321 319 325 332 333 333 334 340
176 176 177 175 175 177 177 177 179 177 173 173 180 183 179 173 167 155 142 124 111 97 82 72 59 49 41 32 29 28 25 23 7 348 343 338 333 332 331 329 329 331 334 335 330 323 319 319 321 322 324 326 323 320 321 320 322 327 325 320 318 318 314 310 307 307 307 311 319 321 315 312 321 330 330 325 322 319 321 328 334 336 338 342 353
178 176 177 176 174 175 177 177 177 178 177 174 178 186 182 174 173 163 149 132 113 96 80 74 64 55 50 38 31 31 24 14 355 341 339 339 334 330 330 331 331 330 330 327 324 325 328 332 334 334 334 335 332 329 328 327 330 335 330 324 321 317 311 308 308 307 303 309 320 325 325 325 332 335 331 327 320 318 324 332 337 339 346 0 15